Regional Weather Roundup
Issued by NWS

Home | Current Version | Previous Version | Text Only | Print | Product List | Glossary On
Versions: 1 2 3 4 5 6 7 8 9 10 11 12 13 14 15 16 17 18 19 20 21 22 23 24 25 26 27 28 29 30 31 32 33 34 35 36 37 38 39 40 41 42 43 44 45 46 47 48 49 50
000
ASUS46 KPQR 220610
RWROR

OREGON REGIONAL WEATHER ROUNDUP
NATIONAL WEATHER SERVICE PORTLAND OR
1100 PM PDT THU AUG 21 2014

NOTE: "FAIR" INDICATES FEW OR NO CLOUDS BELOW 12,000 FEET WITH
NO SIGNIFICANT WEATHER AND/OR OBSTRUCTIONS TO VISIBILITY.

ORZ001>013-220700-
NORTHWEST OREGON


CITY           SKY/WX    TMP DP  RH WIND       PRES   REMARKS
ASTORIA        CLOUDY    62  56  80 SE3       29.99S
6HR MIN TEMP:  61; 6HR MAX TEMP:  67;

NEWPORT        CLOUDY    57  54  88 CALM      30.03F
PORTLAND       CLOUDY    68  50  52 NW8       29.97R
6HR MIN TEMP:  68; 6HR MAX TEMP:  80;

VANCOUVER WA   CLOUDY    67  47  48 VRB6      29.96R
6HR MIN TEMP:  67; 6HR MAX TEMP:  79;

SCAPPOOSE      PTCLDY    63  52  67 N7        29.96S
6HR MIN TEMP:  63; 6HR MAX TEMP:  79;

HILLSBORO      CLOUDY    63  52  67 W5        29.96R
6HR MIN TEMP:  62; 6HR MAX TEMP:  79;

AURORA         CLEAR     64  50  60 CALM      29.97R
6HR MIN TEMP:  64; 6HR MAX TEMP:  80;

MCMINNVILLE    PTCLDY    62  47  57 SW7       29.97S
6HR MIN TEMP:  62; 6HR MAX TEMP:  80;

SALEM          CLOUDY    67  39  35 NW7       29.95S
6HR MIN TEMP:  67; 6HR MAX TEMP:  82;

CORVALLIS      CLOUDY    63  48  59 N12       29.99R
EUGENE         MOCLDY    65  44  46 S6        29.98S
6HR MIN TEMP:  65; 6HR MAX TEMP:  85;

$$

ORZ021-028-220700-
SOUTHWEST OREGON


CITY           SKY/WX    TMP DP  RH WIND       PRES   REMARKS
NORTH BEND     CLOUDY    63  59  88 E3        30.02F
6HR MIN TEMP:  63; 6HR MAX TEMP:  70;

BROOKINGS      CLEAR     58  53  83 SE3       30.02R
ROSEBURG       CLEAR     68  44  42 N3        29.99R
6HR MIN TEMP:  68; 6HR MAX TEMP:  88;

SEXTON SUMMIT  CLEAR     55  44  66 N7        30.05F
6HR MIN TEMP:  55; 6HR MAX TEMP:  75;

MEDFORD        CLEAR     72  44  36 N7        29.95S
6HR MIN TEMP:  72; 6HR MAX TEMP:  90;

$$

ORZ009-041-220700-
COLUMBIA GORGE


CITY           SKY/WX    TMP DP  RH WIND       PRES   REMARKS
TROUTDALE      MOCLDY    68  46  45 VRB5      29.94S
6HR MIN TEMP:  67; 6HR MAX TEMP:  79;

THE DALLES     CLEAR     70  46  42 W13       29.89S
6HR MIN TEMP:  70; 6HR MAX TEMP:  83;

$$

ORZ029>031-042>050-061>064-220700-
EASTERN OREGON


CITY           SKY/WX    TMP DP  RH WIND       PRES   REMARKS
REDMOND        CLEAR     61  40  45 N5        29.98S
6HR MIN TEMP:  57; 6HR MAX TEMP:  79;

BEND           CLEAR     57  39  51 S5        30.01S
KLAMATH FALLS  CLEAR     59  39  47 W5        30.03S
6HR MIN TEMP:  55; 6HR MAX TEMP:  80;

LAKEVIEW       MOCLDY    52  25  35 N6        30.06S
HERMISTON      CLEAR     69  44  40 SW10      29.85R
6HR MIN TEMP:  68; 6HR MAX TEMP:  85;

PENDLETON      PTCLDY    70  41  34 SW12      29.90R
6HR MIN TEMP:  68; 6HR MAX TEMP:  83;

JOHN DAY       PTCLDY    64  23  21 W3        29.98S
MEACHAM        MOCLDY    49  36  61 CALM      30.00S
6HR MIN TEMP:  49; 6HR MAX TEMP:  73;

LA GRANDE      MOCLDY    64  25  22 W8        29.94S
6HR MIN TEMP:  64; 6HR MAX TEMP:  81;

BAKER CITY     NOT AVBL
BURNS          PTCLDY    58  22  24 W10       29.98S
6HR MIN TEMP:  58; 6HR MAX TEMP:  83;

ROME             N/A     64  25  22 E9        29.93F
6HR MIN TEMP:  64; 6HR MAX TEMP:  86;

ONTARIO        MOCLDY    67  43  41 N5        29.87R
6HR MIN TEMP:  65; 6HR MAX TEMP:  83;

$$


USA.gov is the U.S. government's official web portal to all federal, state and local government web resources and services.